This is the latest recevied weather packets stored in our database for station/object N0HOT. If no packets are shown the sender has not sent any weather packets the latest 10 day(s).
| Time | Temp. | Humidity | Pressure | Rain* | Wind** | Luminosity | Snow |
|---|---|---|---|---|---|---|---|
| 1788639344 | 28.89° C | 59% | 1016 hPa | 0 mm | - | 560 W/m² | - |
| 1788639043 | 28.89° C | 62% | 1016 hPa | 0 mm | - | 206 W/m² | - |
| 1788638738 | 28.89° C | 60% | 1015.6 hPa | 0 mm | - | 192 W/m² | - |
| 1788638438 | 28.33° C | 59% | 1016.3 hPa | 0 mm | - | 252 W/m² | - |
| 1788638132 | 28.33° C | 61% | 1016 hPa | 0 mm | - | 666 W/m² | - |
| 1788637827 | 28.33° C | 61% | 1016 hPa | 0 mm | - | 641 W/m² | - |
| 1788637522 | 28.33° C | 61% | 1016 hPa | 0 mm | - | 315 W/m² | - |
| 1788637222 | 27.78° C | 62% | 1016.3 hPa | 0 mm | - | 360 W/m² | - |
| 1788636922 | 27.78° C | 62% | 1016.3 hPa | 0 mm | - | 364 W/m² | - |
| 1788636617 | 27.22° C | 62% | 1016.3 hPa | 0 mm | - | 334 W/m² | - |
| 1788636312 | 27.22° C | 63% | 1016.7 hPa | 0 mm | - | 613 W/m² | - |
| 1788636009 | 27.22° C | 64% | 1016.3 hPa | 0 mm | - | 259 W/m² | - |
| 1788635707 | 27.22° C | 67% | 1016.7 hPa | 0 mm | - | 503 W/m² | - |
| 1788635407 | 26.67° C | 68% | 1016.7 hPa | 0 mm | - | 150 W/m² | - |
| 1788635140 | 26.67° C | 68% | 1016.7 hPa | 0 mm | - | 131 W/m² | - |
| 1788634804 | 26.67° C | 65% | 1016.7 hPa | 0 mm | - | 151 W/m² | - |
| 1788634499 | 26.67° C | 67% | 1016.7 hPa | 0 mm | - | 445 W/m² | - |
| 1788634197 | 26.67° C | 68% | 1016.3 hPa | 0 mm | - | 600 W/m² | - |
| 1788633892 | 26.67° C | 68% | 1017 hPa | 0 mm | - | 164 W/m² | - |
| 1788633591 | 26.67° C | 69% | 1016.7 hPa | 0 mm | - | 192 W/m² | - |
| 1788633291 | 26.67° C | 68% | 1016.7 hPa | 0 mm | - | 117 W/m² | - |
| 1788632986 | 26.67° C | 67% | 1016.7 hPa | 0 mm | - | 146 W/m² | - |
| 1788632686 | 26.67° C | 65% | 1016.7 hPa | 0 mm | - | 202 W/m² | - |
| 1788632381 | 26.67° C | 65% | 1016.7 hPa | 0 mm | - | 267 W/m² | - |
| 1788632081 | 26.67° C | 67% | 1016.7 hPa | 0 mm | - | 297 W/m² | - |
* Rain latest hour (hover to see other rain measurements)
** Current wind speed in m/s (hover to see current wind gust speed)